Flag for Australia Weather past 2 weeks in The Settlement, Christmas Island, Australia

Now
70 °F

Clear.


Feels Like: 70 °F
Forecast: 74 / 79 °F
Wind: 3 mph from Southwest

Location: Christmas Island Aerodrome

Current Time: Jan 31, 2015 at 4:49:15 AM

Latest Report: Jan 31, 2015 at 4:00 AM


Visibility: N/A

Pressure: 29.86 "Hg

Humidity: 94%

Dew point: 68 °F

Location of The SettlementLocation

Historic Weather in The Settlement — Graph

°F

The Settlement temperature yesterday

Maximum temperature yesterday: 82 °F (at 1:00 PM)
Minimum temperature yesterday: 72 °F (at 5:00 AM)
Average temperature yesterday: 77 °F

Past Weeks' High & Low Weather Summary

 TemperatureHumidityPressure
High84 °F (Jan 22, 11:00 AM)100% (Jan 17, 2:00 AM)30.01 "Hg (Jan 17, 2:00 AM)
Low72 °F (Jan 17, 2:00 AM)58% (Jan 30, 1:00 PM)29.80 "Hg (Jan 17, 4:00 PM)
Average77 °F87%29.91 "Hg
* Reported Jan 16 3:00 AM — Jan 31 3:00 AM, The Settlement, Weather by CustomWeather, © 2014

Note: Actual official high and low records may vary slightly from our data, if they occured in-between our weather recording intervals... More about our weather records

Advertising

The Settlement weather history for previous 24 hours

 ConditionsComfort  
Time TempWeatherWind HumidityBarometerVisibility
3:00 AM
Jan 31
72 °FClear.3 mph88%29.86 "HgN/A
2:00 AM72 °FClear.5 mph94%29.89 "HgN/A
1:00 AM72 °FClear.No wind94%29.89 "HgN/A
12:00 AM72 °FClear.2 mph94%29.92 "HgN/A
11:00 PM
Jan 30
72 °FClear.No wind94%29.92 "HgN/A
10:00 PM73 °FPassing clouds.3 mph89%29.92 "HgN/A
9:00 PM73 °FClear.3 mph83%29.92 "HgN/A
8:00 PM73 °FClear.2 mph89%29.92 "HgN/A
7:00 PM75 °FClear.2 mph83%29.89 "HgN/A
6:00 PM79 °FSunny.3 mph74%29.86 "HgN/A
5:00 PM81 °FScattered clouds.8 mph66%29.83 "HgN/A
4:00 PM82 °FSunny.8 mph62%29.83 "HgN/A
3:00 PM81 °FOvercast.6 mph66%29.86 "HgN/A
2:00 PM81 °FCloudy.7 mph66%29.86 "HgN/A
1:00 PM82 °FScattered clouds.9 mph58%29.89 "HgN/A
12:00 PM81 °FScattered clouds.9 mph66%29.92 "HgN/A
11:00 AM81 °FBroken clouds.8 mph62%29.92 "HgN/A
10:00 AM81 °FBroken clouds.5 mph70%29.95 "HgN/A
9:00 AM81 °FPartly sunny.6 mph70%29.95 "HgN/A
8:00 AM79 °FSunny.8 mph70%29.92 "HgN/A
7:00 AM77 °FSunny.5 mph74%29.92 "HgN/A
6:00 AM72 °FSunny.3 mph88%29.89 "HgN/A
5:00 AM72 °FClear.3 mph94%29.86 "HgN/A
4:00 AM73 °FPassing clouds.5 mph89%29.86 "HgN/A
Weather by CustomWeather, © 2014

See weather overviewHow to use our weather pages